GW3251 Weather Reports


time (UTC)temp
C
wind
direction
speed
KPH
gust
KPH
rain 1hr
cm
rain 24hr
cm
rain mn
cm
humidity
%
barometer
mb
20260502130538 11 0 0.0 4.8 0.00 1.78 0.00 95 1020.8
20260502123538 10 0 0.0 1.6 0.00 2.16 0.00 94 1020.4
20260502123048 10 0 0.0 0.0 0.00 2.16 0.00 95 1020.2
20260502122537 10 0 0.0 3.2 0.00 2.16 0.00 94 1019.9
20260502122037 10 0 0.0 3.2 0.00 2.16 0.00 94 1019.8
20260502121550 9 0 0.0 0.0 0.00 2.16 0.00 94 1019.8
20260502121038 9 0 0.0 0.0 0.00 2.16 0.00 94 1019.6
20260502120536 9 0 0.0 0.0 0.00 2.16 0.00 94 1019.6
20260502120107 9 0 0.0 0.0 0.00 2.16 0.00 94 1019.6
20260502115537 9 0 0.0 0.0 0.00 2.64 0.00 94 1019.5
20260502115039 9 0 0.0 0.0 0.00 2.64 0.00 94 1019.7
20260502114546 9 0 0.0 0.0 0.00 2.64 0.00 94 1019.5
20260502114037 9 0 0.0 0.0 0.00 2.64 0.00 94 1019.5
20260502113537 9 0 0.0 0.0 0.00 2.64 0.00 94 1019.3
20260502113050 9 0 0.0 0.0 0.00 2.64 0.00 94 1019.4
20260502112536 9 0 0.0 0.0 0.00 2.64 0.00 94 1019.3
20260502112039 9 0 0.0 0.0 0.00 2.64 0.00 94 1019.3
20260502111551 9 0 0.0 0.0 0.00 2.64 0.00 94 1019.1
20260502111037 9 0 0.0 0.0 0.00 2.64 0.00 94 1019.1
20260502110536 10 0 0.0 0.0 0.00 2.64 0.00 94 1018.9
20260502110047 10 0 0.0 0.0 0.00 2.64 0.00 94 1018.9
20260502105537 10 0 0.0 0.0 0.00 2.90 0.00 94 1018.9
20260502105037 10 0 0.0 0.0 0.00 2.90 0.00 94 1018.7
20260502104552 10 0 0.0 0.0 0.00 2.90 0.00 94 1018.8
20260502104037 10 0 0.0 0.0 0.00 2.90 0.00 94 1018.7
20260502103537 10 0 0.0 0.0 0.00 2.90 0.00 94 1018.6
20260502103046 10 0 0.0 0.0 0.00 2.90 0.00 94 1018.5
20260502102538 10 0 0.0 4.8 0.00 2.90 0.00 94 1018.3
20260502102037 10 0 0.0 4.8 0.00 2.90 0.00 94 1018.2
20260502101550 10 0 0.0 4.8 0.00 2.90 0.00 94 1018.3
20260502101038 10 0 0.0 4.8 0.00 2.90 0.00 94 1018.3
20260502100536 10 0 0.0 8.0 0.00 2.90 0.00 94 1018.3
20260502100112 10 0 0.0 8.0 0.00 2.90 0.00 94 1018.3
20260502091036 10 0 0.0 0.0 0.00 3.15 0.00 94 1018.1
20260502090536 10 0 0.0 6.4 0.00 3.15 0.00 94 1017.8
20260502071037 10 0 0.0 0.0 0.00 3.63 0.00 93 1017.5
20260502070537 10 0 0.0 0.0 0.00 3.63 0.00 93 1017.4
20260502070046 11 0 0.0 0.0 0.00 3.63 0.00 93 1017.5
20260502065537 11 0 0.0 0.0 0.00 3.63 0.00 92 1017.5
20260502065037 11 0 0.0 1.6 0.00 3.63 0.00 92 1017.6
20260502064549 11 0 0.0 4.8 0.00 3.63 0.00 92 1017.5
20260502064037 11 0 0.0 9.7 0.00 3.63 0.00 92 1017.5
20260502063537 11 0 0.0 12.9 0.00 3.63 0.00 92 1017.5
20260502063058 11 0 0.0 12.9 0.00 3.63 0.00 92 1017.4
20260502062540 11 0 0.0 11.3 0.00 3.63 0.00 92 1017.2
20260502062036 11 0 0.0 11.3 0.00 3.63 0.00 93 1017.3
20260502061548 11 0 0.0 8.0 0.00 3.63 0.00 92 1017.2
20260502061037 11 0 0.0 0.0 0.00 3.63 0.00 92 1017.3
20260502060536 11 0 0.0 0.0 0.00 3.63 0.00 92 1017.4
20260502060046 11 0 0.0 6.4 0.00 3.63 0.00 93 1017.5
20260502055537 11 0 0.0 9.7 0.00 3.68 0.00 92 1017.4
20260502055037 11 0 0.0 9.7 0.00 3.68 0.00 93 1017.6
20260502054549 11 0 0.0 9.7 0.00 3.68 0.00 93 1017.5
20260502054039 11 0 0.0 6.4 0.00 3.68 0.00 93 1017.5
20260502053537 11 0 0.0 8.0 0.00 3.68 0.00 93 1017.4
20260502053049 11 0 0.0 8.0 0.00 3.68 0.00 93 1017.3
20260502052537 11 0 0.0 9.7 0.00 3.68 0.00 93 1017.5
20260502052037 11 0 1.6 14.5 0.00 3.68 0.00 93 1017.5
20260502051604 11 0 0.0 14.5 0.00 3.68 0.00 93 1017.5
20260502051038 11 0 0.0 12.9 0.00 3.68 0.00 93 1017.4
20260502050537 11 0 0.0 14.5 0.00 3.68 0.00 93 1017.4
20260502050051 11 44 0.0 14.5 0.00 3.68 0.00 93 1017.3
20260502045539 11 50 1.6 17.7 0.00 3.91 3.68 93 1017.2
20260502045038 11 26 1.6 17.7 0.00 3.91 3.68 93 1017.2
20260502044547 11 63 1.6 17.7 0.00 3.91 3.68 93 1017.2
20260502044036 11 0 0.0 20.9 0.00 3.91 3.68 93 1017.2
20260502043539 11 0 3.2 20.9 0.00 3.91 3.68 93 1017.0
20260502043050 11 52 3.2 20.9 0.00 3.91 3.68 93 1017.2
20260502042537 11 0 1.6 20.9 0.00 3.91 3.68 94 1017.3
20260502042036 10 28 6.4 14.5 0.00 3.91 3.68 93 1017.2
20260502041546 10 11 0.0 19.3 0.00 3.91 3.68 93 1017.2
20260502041037 11 62 3.2 19.3 0.00 3.91 3.68 93 1017.3
20260502040537 11 56 3.2 19.3 0.00 3.91 3.68 93 1017.2
20260502040050 11 0 3.2 16.1 0.00 3.91 3.68 93 1017.2
20260502035540 11 38 3.2 22.5 0.00 4.11 3.68 93 1017.4
20260502035037 11 0 3.2 22.5 0.00 4.11 3.68 93 1017.4
20260502034549 11 0 3.2 19.3 0.00 4.11 3.68 94 1017.4
20260502034037 11 0 3.2 19.3 0.00 4.11 3.68 94 1017.2
20260502033536 11 22 4.8 19.3 0.00 4.11 3.68 94 1017.3
20260502033053 11 0 4.8 20.9 0.00 4.11 3.68 94 1017.3
20260502032537 11 0 8.0 27.4 0.00 4.11 3.68 94 1017.2
20260502032038 11 42 6.4 27.4 0.00 4.11 3.68 94 1017.1
20260502031605 11 0 3.2 20.9 0.00 4.11 3.68 94 1017.0
20260502031038 11 46 4.8 22.5 0.00 4.11 3.68 94 1017.0
20260502030538 11 40 8.0 22.5 0.00 4.11 3.68 94 1016.8
20260502030046 11 0 4.8 16.1 0.00 4.11 3.68 94 1016.7
20260502025537 11 42 1.6 19.3 0.00 4.11 3.68 94 1016.6
20260502025037 11 0 3.2 19.3 0.00 4.11 3.68 94 1016.7
20260502024553 11 69 6.4 25.7 0.00 4.11 3.68 94 1016.6
20260502024037 11 24 4.8 25.7 0.00 4.11 3.68 94 1016.6
20260502023537 11 45 3.2 22.5 0.00 4.11 3.68 94 1016.5
20260502023049 12 17 11.3 22.5 0.00 4.11 3.68 94 1016.3
20260502022537 12 32 1.6 20.9 0.00 4.11 3.68 94 1016.4
20260502022036 12 32 4.8 20.9 0.00 4.11 3.68 94 1016.3
20260502021544 12 17 4.8 17.7 0.00 4.11 3.68 94 1016.2
20260502021037 12 0 0.0 16.1 0.00 4.11 3.68 94 1016.1
20260502020541 12 0 1.6 16.1 0.00 4.11 3.68 94 1015.9
20260502020057 12 78 1.6 20.9 0.00 4.11 3.68 94 1015.6
20260502015538 12 0 4.8 20.9 0.00 4.11 3.68 94 1015.4
20260502015038 12 36 3.2 22.5 0.00 4.11 3.68 94 1015.0
20260502014543 12 63 3.2 27.4 0.00 4.11 3.68 94 1014.8
20260502014037 12 23 4.8 27.4 0.00 4.11 3.68 94 1014.6
20260502013540 12 352 9.7 25.7 0.00 4.11 3.68 94 1014.6
20260502013053 12 0 4.8 25.7 0.00 4.11 3.68 94 1014.7
20260502012542 12 43 4.8 25.7 0.00 4.11 3.68 94 1014.6
20260502012037 12 0 3.2 17.7 0.00 4.11 3.68 94 1014.8
20260502011549 12 44 0.0 22.5 0.00 4.11 3.68 94 1014.8
20260502011036 12 38 4.8 22.5 0.00 4.11 3.68 94 1014.7
20260502010537 12 46 6.4 24.1 0.03 4.11 3.68 94 1014.8
20260502010054 12 38 6.4 24.1 0.03 4.11 3.68 94 1014.8
20260502005537 12 53 4.8 19.3 0.03 4.11 3.68 94 1014.8
20260502005037 12 35 3.2 20.9 0.03 4.11 3.68 94 1014.6
20260502004547 12 51 3.2 20.9 0.03 4.11 3.68 94 1014.7
20260502004037 12 41 3.2 20.9 0.03 4.11 3.68 94 1014.7
20260502003537 12 38 3.2 20.9 0.03 4.11 3.68 94 1014.7
20260502003049 12 75 6.4 20.9 0.05 4.11 3.68 94 1014.9
20260502002537 12 32 1.6 22.5 0.05 4.11 3.68 94 1015.1
20260502002037 12 28 3.2 25.7 0.05 4.11 3.68 94 1014.9
20260502001549 12 19 6.4 25.7 0.05 4.11 3.68 94 1014.5
20260502001038 12 355 3.2 25.7 0.03 4.09 3.66 94 1014.6
20260502000537 12 62 9.7 25.7 0.05 4.09 3.66 94 1014.6
20260502000049 13 45 6.4 20.9 0.08 4.09 3.66 94 1014.8
20260501235538 13 26 3.2 20.9 0.10 4.09 3.66 94 1014.8
20260501235038 13 350 3.2 24.1 0.13 4.09 3.66 94 1014.4
20260501234552 13 0 3.2 24.1 0.13 4.09 3.66 94 1014.6
20260501234037 13 0 3.2 22.5 0.13 4.09 3.66 94 1014.4
20260501233537 13 0 1.6 22.5 0.13 4.09 3.66 94 1014.1
20260501233044 13 9 0.0 14.5 0.13 4.06 3.63 94 1014.1
20260501232537 13 0 0.0 14.5 0.15 4.06 3.63 94 1014.1
20260501232036 13 360 3.2 17.7 0.15 4.06 3.63 94 1014.0
20260501231557 13 11 1.6 22.5 0.20 4.06 3.63 94 1013.8
20260501231037 13 52 4.8 22.5 0.20 4.06 3.63 94 1013.7
20260501230537 13 17 3.2 22.5 0.18 4.04 3.61 94 1013.6
20260501230044 13 0 3.2 25.7 0.15 4.01 3.58 94 1013.4
20260501225537 13 39 9.7 25.7 0.13 3.99 3.56 94 1012.9
20260501225038 13 0 4.8 20.9 0.10 3.96 3.53 94 1012.9
20260501224545 13 0 6.4 20.9 0.10 3.96 3.53 94 1012.8
20260501224037 13 0 4.8 19.3 0.10 3.96 3.53 94 1012.7
20260501223537 13 0 4.8 20.9 0.10 3.96 3.53 94 1012.6
20260501223046 14 0 8.0 27.4 0.08 3.94 3.51 94 1012.2
20260501222538 14 49 8.0 27.4 0.05 3.91 3.48 94 1011.7
20260501222038 14 49 12.9 25.7 0.08 3.91 3.48 94 1011.8
20260501221552 14 40 4.8 25.7 0.05 3.86 3.43 94 1011.8
20260501221038 14 55 9.7 25.7 0.10 3.86 3.43 94 1011.7
20260501220537 14 0 9.7 25.7 0.15 3.86 3.43 94 1012.0
20260501220050 14 23 4.8 27.4 0.20 3.86 3.43 94 1011.7
20260501215537 14 38 8.0 27.4 0.28 3.86 3.43 94 1011.3
20260501215038 14 31 8.0 27.4 0.33 3.86 3.43 94 1010.6
20260501214600 14 45 9.7 24.1 0.36 3.86 3.43 94 1010.8
20260501214037 15 82 8.0 20.9 0.41 3.86 3.43 94 1011.0
20260501213537 15 15 6.4 24.1 0.46 3.86 3.43 94 1011.3
20260501213056 15 0 6.4 24.1 0.53 3.86 3.43 94 1011.2
20260501212537 15 30 6.4 22.5 0.58 3.86 3.43 94 1011.0
20260501212037 14 71 9.7 22.5 0.58 3.84 3.40 94 1010.3
20260501211554 14 16 8.0 22.5 0.56 3.81 3.38 94 1011.2
20260501211037 14 0 0.0 19.3 0.53 3.76 3.33 94 1012.1
20260501210537 14 34 0.0 24.1 0.48 3.71 3.28 94 1012.1
20260501210048 14 352 4.8 24.1 0.41 3.63 3.20 94 1011.8
20260501205538 14 20 11.3 24.1 0.38 3.73 3.15 94 1011.5
20260501205038 14 28 6.4 20.9 0.36 3.68 3.10 94 1012.0
20260501204552 14 0 0.0 20.9 0.33 3.63 3.05 94 1012.2
20260501204037 14 47 3.2 22.5 0.30 3.61 3.02 94 1011.8
20260501203537 14 46 9.7 22.5 0.23 3.53 2.95 94 1011.6
20260501203051 14 29 3.2 29.0 0.20 3.48 2.90 94 1011.8
20260501202537 14 28 4.8 29.0 0.18 3.43 2.84 94 1011.9
20260501202038 14 0 6.4 20.9 0.18 3.40 2.82 94 1011.7
20260501201550 14 352 6.4 25.7 0.20 3.40 2.82 94 1011.1
20260501201038 14 0 6.4 25.7 0.20 3.38 2.79 94 1011.5
20260501200537 14 21 4.8 25.7 0.25 3.38 2.79 94 1011.6
20260501200053 14 5 3.2 25.7 0.30 3.38 2.79 94 1011.8
20260501195537 14 39 11.3 25.7 0.28 3.35 2.77 94 1011.0
20260501195037 14 23 6.4 24.1 0.28 3.33 2.74 94 1012.0
20260501194555 15 15 6.4 24.1 0.25 3.30 2.72 94 1012.3
20260501194036 15 20 1.6 20.9 0.25 3.30 2.72 94 1012.2
20260501193540 15 28 4.8 19.3 0.23 3.28 2.67 94 1012.2
20260501193046 15 0 1.6 19.3 0.23 3.28 2.67 94 1012.0
20260501192536 15 0 3.2 19.3 0.20 3.25 2.64 94 1011.8
20260501192037 15 0 3.2 22.5 0.18 3.23 2.64 94 1012.3
20260501191546 15 40 0.0 22.5 0.15 3.20 2.62 94 1012.0
20260501191038 15 0 3.2 22.5 0.10 3.15 2.57 94 1012.0
20260501190537 15 0 1.6 16.1 0.08 3.12 2.54 94 1012.0
20260501190059 15 0 4.8 17.7 0.03 3.07 2.49 94 1011.2
20260501185537 15 54 4.8 17.7 0.00 3.07 2.46 94 1011.1
20260501185037 15 40 3.2 17.7 0.00 3.07 2.46 94 1011.8
20260501184546 15 5 1.6 20.9 0.00 3.07 2.46 94 1012.0
20260501184037 15 0 1.6 22.5 0.00 3.07 2.46 94 1011.4
20260501183537 15 5 4.8 22.5 0.00 3.07 2.46 94 1011.0
20260501183044 15 0 6.4 24.1 0.00 3.07 2.46 94 1010.8
20260501182538 15 0 6.4 24.1 0.00 3.07 2.46 94 1010.1
20260501182036 15 35 6.4 25.7 0.00 3.07 2.46 94 1010.0
20260501181548 15 38 4.8 25.7 0.00 3.07 2.46 94 1010.2
20260501181036 16 5 8.0 25.7 0.05 3.07 2.46 94 1010.1
20260501180537 16 22 3.2 24.1 0.05 3.07 2.46 94 1010.1
20260501180046 16 45 8.0 24.1 0.08 3.07 2.46 94 1010.2
20260501175538 16 11 11.3 25.7 0.10 3.12 2.46 94 1010.0
20260501175037 15 26 6.4 25.7 0.13 3.12 2.46 94 1009.6
20260501174601 15 66 8.0 33.8 0.13 3.12 2.46 95 1009.7
20260501174037 15 84 14.5 33.8 0.13 3.12 2.46 94 1009.5
20260501173537 15 90 11.3 33.8 0.13 3.12 2.46 94 1009.3
20260501173102 16 0 6.4 29.0 0.13 3.12 2.46 95 1009.5
20260501172538 16 81 4.8 27.4 0.13 3.12 2.46 95 1010.0
20260501172037 16 76 8.0 19.3 0.13 3.12 2.46 95 1010.5
20260501171553 15 66 4.8 17.7 0.13 3.12 2.46 95 1010.7
20260501171041 15 0 6.4 16.1 0.08 3.07 2.41 95 1011.9
20260501170537 15 0 4.8 19.3 0.08 3.07 2.41 95 1012.9
20260501170044 15 63 3.2 19.3 0.05 3.05 2.39 95 1013.4
20260501165538 15 0 3.2 20.9 0.03 3.05 2.36 95 1013.5
20260501165036 14 43 3.2 20.9 0.03 3.02 2.34 95 1013.7
20260501164547 14 31 8.0 20.9 0.03 3.02 2.34 94 1013.9
20260501164037 15 57 3.2 29.0 0.03 3.02 2.34 95 1013.9
20260501163537 14 59 6.4 29.0 0.03 3.02 2.34 94 1013.8
20260501163046 14 53 8.0 29.0 0.05 3.02 2.34 94 1013.8
20260501162537 15 0 8.0 25.7 0.05 3.02 2.34 95 1013.4
20260501162037 15 53 6.4 20.9 0.08 3.02 2.34 95 1013.1
20260501161549 15 86 6.4 24.1 0.10 3.02 2.34 95 1013.2
20260501161037 15 69 6.4 24.1 0.13 3.02 2.34 95 1013.1
20260501160538 15 55 4.8 24.1 0.15 3.02 2.34 95 1013.0
20260501160054 15 0 9.7 29.0 0.20 3.02 2.34 95 1012.8
20260501155537 15 49 9.7 29.0 0.18 2.97 2.31 95 1012.6
20260501155037 15 59 6.4 29.0 0.20 2.97 2.31 95 1013.0
20260501154558 15 46 4.8 25.7 0.20 2.97 2.31 95 1013.3
20260501154036 15 43 8.0 25.7 0.20 2.97 2.31 95 1013.6
20260501153538 15 45 4.8 17.7 0.20 2.97 2.31 95 1013.8
20260501153049 15 0 4.8 17.7 0.18 2.95 2.29 95 1014.1
20260501152539 15 342 3.2 17.7 0.18 2.95 2.29 95 1014.6
20260501152038 15 0 1.6 17.7 0.15 2.95 2.26 95 1014.9
20260501151550 15 341 0.0 14.5 0.13 2.92 2.24 95 1015.2
20260501151041 15 0 0.0 14.5 0.10 2.90 2.21 95 1015.0
20260501150537 15 48 1.6 11.3 0.05 2.84 2.16 95 1014.7
20260501150049 15 0 0.0 17.7 0.05 2.82 2.13 95 1014.8
20260501145539 15 0 3.2 19.3 0.05 2.82 2.13 95 1014.6
20260501145037 15 51 8.0 20.9 0.05 2.79 2.11 95 1014.1
20260501144552 15 49 3.2 20.9 0.08 2.79 2.11 95 1014.0
20260501144045 15 0 8.0 20.9 0.08 2.79 2.11 95 1013.7
20260501143541 15 0 3.2 20.9 0.10 2.79 2.11 95 1013.6
20260501143056 15 38 4.8 20.9 0.10 2.79 2.11 95 1013.1
20260501142542 15 35 4.8 22.5 0.13 2.79 2.11 95 1012.9
20260501142039 15 50 4.8 22.5 0.13 2.79 2.11 95 1012.8
20260501141609 15 49 8.0 22.5 0.15 2.79 2.11 95 1012.8
20260501141042 15 67 6.4 19.3 0.15 2.79 2.11 95 1012.8
20260501140540 15 57 4.8 22.5 0.18 2.79 2.11 95 1012.8
20260501140050 15 36 6.4 22.5 0.18 2.77 2.08 95 1012.9
20260501135544 15 25 9.7 20.9 0.20 2.77 2.08 95 1012.0
20260501135043 15 56 3.2 14.5 0.20 2.74 2.06 95 1013.1
20260501134551 15 40 1.6 11.3 0.20 2.72 2.03 95 1014.2